Soldotna, AK

10:30 PM AKDT on September 19, 2017 (GMT -0800)
Soldotna

Weather History for PASX - October, 2014

Change the Weather History Date:

Thursday, October 16, 2014

  Actual Average Record
Temperature  
Mean Temperature 38 °F -  
Max Temperature 44 °F 42 °F 54 °F (1972)
Min Temperature 32 °F 28 °F 3 °F (1996)
Degree Days  
Heating Degree Days 27    
Moisture  
Dew Point 31 °F    
Average Humidity 78    
Maximum Humidity 87    
Minimum Humidity 57    
Precipitation  
Precipitation 0.00 in - - ()
Sea Level Pressure  
Sea Level Pressure 29.48 in    
Wind  
Wind Speed 1 mph (NE)    
Max Wind Speed 8 mph    
Max Gust Speed -    
Visibility 10 miles    
Events      
Averages and records for this station are not official NWS values.
T = Trace of Precipitation, MM = Missing Value Source: NWS Daily Summary

Daily Weather History Graph

Daily Weather History Graph

Search for Another Location

Airport or City:

Trip Planner

Search our weather history database for the weather conditions in past years. The results will help you decide how hot, cold, wet, or windy it might be!

Date:

Astronomy

Oct. 16, 2014 Rise Set
Actual Time 8:47 AM AKDT 6:50 PM AKDT
Civil Twilight 8:04 AM AKDT 7:33 PM AKDT
Nautical Twilight 7:15 AM AKDT 8:22 PM AKDT
Astronomical Twilight 6:26 AM AKDT 9:11 PM AKDT
Moon 12:31 AM AKDT (10/16) 4:35 PM AKDT (10/16)
Length of Visible Light 11h 28m
Length of Day
10h 02m
Last Quarter, 40% of the Moon is Illuminated
Oct 16
Last Quarter
Oct 23
New
Oct 30
First Quarter
Nov 6
Full
Nov 14
Last Quarter

Hourly Weather History & Observations

Time (AKDT) Temp. Windchill Dew Point Humidity Pressure Visibility Wind Dir Wind Speed Gust Speed Precip Events Conditions
12:16 AM 33.8 °F - 28.4 °F 81% 29.46 in 10.0 mi Calm Calm - N/A   Overcast
12:36 AM 33.8 °F - 28.4 °F 81% 29.46 in 10.0 mi Calm Calm - N/A   Overcast
12:56 AM 33.8 °F - 28.4 °F 81% 29.46 in 10.0 mi Calm Calm - N/A   Overcast
1:16 AM 33.8 °F - 28.4 °F 81% 29.47 in 10.0 mi Calm Calm - N/A   Overcast
1:36 AM 33.8 °F - 28.4 °F 81% 29.47 in 10.0 mi Calm Calm - N/A   Overcast
1:56 AM 33.8 °F - 28.4 °F 81% 29.47 in 10.0 mi Calm Calm - N/A   Overcast
2:16 AM 33.8 °F 30.8 °F 28.4 °F 81% 29.47 in 10.0 mi ENE 3.5 mph - N/A   Overcast
2:36 AM 33.8 °F - 28.4 °F 81% 29.47 in 10.0 mi Calm Calm - N/A   Overcast
2:56 AM 33.8 °F - 28.4 °F 81% 29.47 in 10.0 mi Calm Calm - N/A   Overcast
3:16 AM 33.8 °F - 28.4 °F 81% 29.47 in 10.0 mi Calm Calm - N/A   Overcast
3:36 AM 33.8 °F 30.8 °F 28.4 °F 81% 29.47 in 10.0 mi East 3.5 mph - N/A   Overcast
3:56 AM 33.8 °F - 28.4 °F 81% 29.47 in 10.0 mi Calm Calm - N/A   Overcast
4:16 AM 33.8 °F - 28.4 °F 81% 29.47 in 10.0 mi Calm Calm - N/A   Overcast
4:36 AM 33.8 °F - 28.4 °F 81% 29.47 in 10.0 mi Calm Calm - N/A   Overcast
4:56 AM 33.8 °F 30.8 °F 28.4 °F 81% 29.47 in 10.0 mi East 3.5 mph - N/A   Overcast
5:16 AM 33.8 °F - 28.4 °F 81% 29.47 in 10.0 mi Calm Calm - N/A   Overcast
5:36 AM 33.8 °F 30.8 °F 28.4 °F 81% 29.46 in 10.0 mi ENE 3.5 mph - N/A   Overcast
5:56 AM 33.8 °F - 28.4 °F 81% 29.46 in 10.0 mi Calm Calm - N/A   Overcast
6:16 AM 33.8 °F 30.8 °F 28.4 °F 81% 29.46 in 10.0 mi East 3.5 mph - N/A   Overcast
6:36 AM 33.8 °F - 28.4 °F 81% 29.47 in 10.0 mi Calm Calm - N/A   Overcast
6:56 AM 33.8 °F - 28.4 °F 81% 29.47 in 10.0 mi Calm Calm - N/A   Overcast
7:16 AM 33.8 °F - 28.4 °F 81% 29.47 in 10.0 mi Calm Calm - N/A   Overcast
7:36 AM 33.8 °F - 28.4 °F 81% 29.47 in 10.0 mi Calm Calm - N/A   Overcast
7:56 AM 33.8 °F - 28.4 °F 81% 29.47 in 10.0 mi Calm Calm - N/A   Overcast
8:16 AM 32.0 °F - 28.4 °F 87% 29.47 in 10.0 mi Calm Calm - N/A   Overcast
8:36 AM 32.0 °F - 26.6 °F 80% 29.48 in 10.0 mi Calm Calm - N/A   Overcast
8:56 AM 33.8 °F - 28.4 °F 81% 29.48 in 10.0 mi Calm Calm - N/A   Overcast
9:16 AM 32.0 °F - 28.4 °F 87% 29.48 in 10.0 mi Calm Calm - N/A   Overcast
9:36 AM 32.0 °F - 28.4 °F 87% 29.48 in 10.0 mi Calm Calm - N/A   Overcast
9:56 AM 33.8 °F - 28.4 °F 81% 29.48 in 10.0 mi Calm Calm - N/A   Overcast
10:16 AM 33.8 °F - 28.4 °F 81% 29.49 in 10.0 mi Calm Calm - N/A   Overcast
10:36 AM 33.8 °F - 30.2 °F 87% 29.49 in 10.0 mi Calm Calm - N/A   Overcast
10:56 AM 33.8 °F - 30.2 °F 87% 29.49 in 10.0 mi Calm Calm - N/A   Overcast
11:16 AM 35.6 °F - 30.2 °F 81% 29.50 in 10.0 mi Calm Calm - N/A   Overcast
11:36 AM 35.6 °F - 30.2 °F 81% 29.50 in 10.0 mi Calm Calm - N/A   Overcast
11:56 AM 35.6 °F - 30.2 °F 81% 29.50 in 10.0 mi Calm Calm - N/A   Overcast
12:16 PM 37.4 °F - 32.0 °F 81% 29.50 in 10.0 mi Calm Calm - N/A   Overcast
12:36 PM 37.4 °F - 32.0 °F 81% 29.50 in 10.0 mi Calm Calm - N/A   Overcast
12:56 PM 39.2 °F - 32.0 °F 75% 29.50 in 10.0 mi Calm Calm - N/A   Overcast
1:16 PM 39.2 °F - 33.8 °F 81% 29.50 in 10.0 mi Calm Calm - N/A   Overcast
1:36 PM 39.2 °F - 33.8 °F 81% 29.50 in 10.0 mi Calm Calm - N/A   Overcast
1:56 PM 41.0 °F - 33.8 °F 76% 29.50 in 10.0 mi Calm Calm - N/A   Overcast
2:16 PM 41.0 °F - 33.8 °F 76% 29.50 in 10.0 mi Calm Calm - N/A   Overcast
2:36 PM 42.8 °F - 33.8 °F 70% 29.50 in 10.0 mi Calm Calm - N/A   Overcast
2:56 PM 42.8 °F - 32.0 °F 66% 29.50 in 10.0 mi Calm Calm - N/A   Overcast
3:16 PM 44.6 °F - 33.8 °F 66% 29.50 in 10.0 mi Calm Calm - N/A   Overcast
3:36 PM 44.6 °F - 33.8 °F 66% 29.50 in 10.0 mi Calm Calm - N/A   Overcast
3:56 PM 44.6 °F - 33.8 °F 66% 29.49 in 10.0 mi Calm Calm - N/A   Scattered Clouds
4:16 PM 44.6 °F 43.1 °F 33.8 °F 66% 29.49 in 10.0 mi North 3.5 mph - N/A   Mostly Cloudy
4:36 PM 44.6 °F 42.2 °F 30.2 °F 57% 29.49 in 10.0 mi North 4.6 mph - N/A   Overcast
4:56 PM 44.6 °F 43.1 °F 32.0 °F 61% 29.48 in 10.0 mi NNE 3.5 mph - N/A   Overcast
5:16 PM 44.6 °F 41.4 °F 33.8 °F 66% 29.48 in 10.0 mi NE 5.8 mph - N/A   Overcast
5:36 PM 44.6 °F 42.2 °F 33.8 °F 66% 29.48 in 10.0 mi NE 4.6 mph - N/A   Overcast
5:56 PM 44.6 °F 42.2 °F 33.8 °F 66% 29.48 in 10.0 mi NNE 4.6 mph - N/A   Overcast
6:16 PM 44.6 °F 42.2 °F 33.8 °F 66% 29.48 in 10.0 mi NNE 4.6 mph - N/A   Overcast
6:36 PM 42.8 °F 39.3 °F 35.6 °F 76% 29.48 in 10.0 mi NE 5.8 mph - N/A   Overcast
6:56 PM 42.8 °F 39.3 °F 33.8 °F 70% 29.48 in 10.0 mi NNE 5.8 mph - N/A   Overcast
7:16 PM 42.8 °F 38.0 °F 33.8 °F 70% 29.48 in 10.0 mi NE 8.1 mph - N/A   Overcast
7:36 PM 42.8 °F 40.1 °F 33.8 °F 70% 29.48 in 10.0 mi NE 4.6 mph - N/A   Overcast
7:56 PM 41.0 °F 39.0 °F 33.8 °F 76% 29.48 in 10.0 mi NE 3.5 mph - N/A   Overcast
8:16 PM 41.0 °F 39.0 °F 33.8 °F 76% 29.48 in 10.0 mi NE 3.5 mph - N/A   Overcast
8:36 PM 41.0 °F 37.1 °F 33.8 °F 76% 29.48 in 10.0 mi NE 5.8 mph - N/A   Overcast
8:56 PM 39.2 °F 35.0 °F 33.8 °F 81% 29.48 in 10.0 mi NE 5.8 mph - N/A   Overcast
9:16 PM 39.2 °F 35.9 °F 33.8 °F 81% 29.48 in 10.0 mi NE 4.6 mph - N/A   Overcast
9:36 PM 39.2 °F 34.2 °F 33.8 °F 81% 29.47 in 10.0 mi NNE 6.9 mph - N/A   Overcast
9:56 PM 39.2 °F 37.0 °F 33.8 °F 81% 29.47 in 10.0 mi ENE 3.5 mph - N/A   Overcast
10:16 PM 39.2 °F 35.0 °F 33.8 °F 81% 29.47 in 10.0 mi NE 5.8 mph - N/A   Overcast
10:36 PM 39.2 °F - 33.8 °F 81% 29.47 in 10.0 mi Calm Calm - N/A   Overcast
10:56 PM 39.2 °F 37.0 °F 33.8 °F 81% 29.47 in 10.0 mi NE 3.5 mph - N/A   Overcast
11:16 PM 39.2 °F - 33.8 °F 81% 29.47 in 10.0 mi Calm Calm - N/A   Overcast
11:36 PM 39.2 °F 35.9 °F 33.8 °F 81% 29.47 in 10.0 mi NNE 4.6 mph - N/A   Overcast
11:56 PM 37.4 °F 34.9 °F 33.8 °F 87% 29.47 in 10.0 mi NE 3.5 mph - N/A   Overcast